| time (UTC) | temp F | wind direction | speed MPH | gust MPH | rain 1hr in | rain 24hr in | rain mn in | humidity % | barometer mb |
| 20260505031541 | 60 | 0 | 1.0 | 5.0 | 0.00 | 0.00 | 0.00 | 76 | 1015.1 |
| 20260505030038 | 60 | 243 | 2.0 | 8.0 | 0.00 | 0.00 | 0.00 | 74 | 1015.1 |
| 20260505024544 | 61 | 198 | 3.0 | 9.0 | 0.00 | 0.00 | 0.00 | 73 | 1015.0 |
| 20260505023056 | 61 | 240 | 2.0 | 7.0 | 0.00 | 0.00 | 0.00 | 71 | 1015.2 |
| 20260505021542 | 62 | 229 | 2.0 | 8.0 | 0.00 | 0.00 | 0.00 | 70 | 1015.0 |
| 20260505020048 | 63 | 200 | 2.0 | 11.0 | 0.00 | 0.00 | 0.00 | 69 | 1014.9 |
| 20260505014540 | 64 | 219 | 3.0 | 10.0 | 0.00 | 0.00 | 0.00 | 67 | 1014.9 |
| 20260505013037 | 65 | 223 | 2.0 | 9.0 | 0.00 | 0.00 | 0.00 | 62 | 1014.9 |
| 20260505011537 | 66 | 228 | 1.0 | 4.0 | 0.00 | 0.00 | 0.00 | 63 | 1014.8 |
| 20260505010045 | 66 | 306 | 2.0 | 7.0 | 0.00 | 0.00 | 0.00 | 63 | 1014.9 |
| 20260505004547 | 67 | 294 | 1.0 | 4.0 | 0.00 | 0.00 | 0.00 | 62 | 1014.8 |
| 20260505003045 | 66 | 261 | 1.0 | 9.0 | 0.00 | 0.00 | 0.00 | 62 | 1014.9 |
| 20260505001537 | 66 | 311 | 2.0 | 8.0 | 0.00 | 0.00 | 0.00 | 61 | 1015.1 |
| 20260505000037 | 67 | 313 | 2.0 | 8.0 | 0.00 | 0.00 | 0.00 | 60 | 1014.9 |
| 20260504234609 | 68 | 246 | 2.0 | 8.0 | 0.00 | 0.00 | 0.00 | 59 | 1014.9 |
| 20260504233043 | 68 | 13 | 3.0 | 7.0 | 0.00 | 0.00 | 0.00 | 59 | 1014.7 |
| 20260504231550 | 69 | 345 | 3.0 | 9.0 | 0.00 | 0.00 | 0.00 | 58 | 1014.7 |
| 20260504230040 | 69 | 271 | 3.0 | 9.0 | 0.00 | 0.00 | 0.00 | 57 | 1014.6 |
| 20260504224537 | 69 | 252 | 3.0 | 9.0 | 0.00 | 0.00 | 0.00 | 56 | 1014.9 |
| 20260504223044 | 70 | 0 | 2.0 | 10.0 | 0.00 | 0.00 | 0.00 | 55 | 1015.0 |
| 20260504221547 | 69 | 216 | 3.0 | 12.0 | 0.00 | 0.00 | 0.00 | 56 | 1015.1 |
| 20260504220042 | 70 | 252 | 4.0 | 11.0 | 0.00 | 0.00 | 0.00 | 56 | 1015.2 |
| 20260504214541 | 69 | 191 | 3.0 | 12.0 | 0.00 | 0.00 | 0.00 | 60 | 1015.3 |
| 20260504213037 | 69 | 212 | 5.0 | 15.0 | 0.00 | 0.00 | 0.00 | 58 | 1015.6 |
| 20260504211546 | 70 | 275 | 3.0 | 10.0 | 0.00 | 0.00 | 0.00 | 56 | 1015.5 |
| 20260504210053 | 66 | 159 | 7.0 | 15.0 | 0.00 | 0.00 | 0.00 | 64 | 1015.5 |
| 20260504204618 | 67 | 264 | 4.0 | 11.0 | 0.00 | 0.00 | 0.00 | 64 | 1015.5 |
| 20260504203040 | 68 | 192 | 4.0 | 12.0 | 0.00 | 0.00 | 0.00 | 63 | 1015.6 |
| 20260504201538 | 66 | 192 | 5.0 | 12.0 | 0.00 | 0.00 | 0.00 | 65 | 1015.6 |
| 20260504200053 | 68 | 200 | 3.0 | 9.0 | 0.00 | 0.00 | 0.00 | 60 | 1015.6 |
| 20260504194550 | 69 | 145 | 3.0 | 12.0 | 0.00 | 0.00 | 0.00 | 59 | 1015.9 |
| 20260504193045 | 71 | 268 | 2.0 | 7.0 | 0.00 | 0.00 | 0.00 | 47 | 1016.1 |
| 20260504191538 | 71 | 309 | 1.0 | 9.0 | 0.00 | 0.00 | 0.00 | 48 | 1016.1 |
| 20260504190042 | 71 | 350 | 2.0 | 9.0 | 0.00 | 0.00 | 0.00 | 48 | 1015.9 |
| 20260504184546 | 70 | 211 | 2.0 | 7.0 | 0.00 | 0.00 | 0.00 | 51 | 1016.2 |
| 20260504183037 | 68 | 222 | 2.0 | 10.0 | 0.00 | 0.00 | 0.00 | 52 | 1016.1 |
| 20260504181542 | 67 | 335 | 1.0 | 9.0 | 0.00 | 0.00 | 0.00 | 59 | 1016.1 |
| 20260504180042 | 66 | 221 | 1.0 | 9.0 | 0.00 | 0.00 | 0.00 | 56 | 1016.2 |
| 20260504174539 | 68 | 244 | 1.0 | 5.0 | 0.00 | 0.00 | 0.00 | 54 | 1016.0 |
| 20260504173048 | 67 | 222 | 2.0 | 7.0 | 0.00 | 0.00 | 0.00 | 56 | 1016.0 |
| 20260504171544 | 66 | 287 | 2.0 | 6.0 | 0.00 | 0.00 | 0.00 | 58 | 1015.9 |
| 20260504081548 | 60 | 0 | 0.0 | 3.0 | 0.00 | 0.00 | 0.00 | 73 | 1015.6 |
| 20260504044541 | 61 | 0 | 0.0 | 3.0 | 0.00 | 0.00 | 0.00 | 71 | 1015.3 |
| 20260504043039 | 61 | 360 | 1.0 | 4.0 | 0.00 | 0.00 | 0.00 | 71 | 1015.0 |
| 20260504041539 | 61 | 0 | 0.0 | 3.0 | 0.00 | 0.00 | 0.00 | 71 | 1014.9 |
| 20260504040045 | 61 | 0 | 0.0 | 3.0 | 0.00 | 0.00 | 0.00 | 71 | 1014.8 |
| 20260504034546 | 61 | 0 | 0.0 | 4.0 | 0.00 | 0.00 | 0.00 | 71 | 1014.7 |
| 20260504033038 | 61 | 293 | 1.0 | 7.0 | 0.00 | 0.00 | 0.00 | 71 | 1014.7 |